Location: Bacea
(45.9500°N, 22.6667°E)
Time: 12:01:47
(UTC+00:00)

Cosmos 1300 - Visible Passes

Search period start: 29 May 2022 00:00
Search period end: 08 June 2022 00:00
Orbit: 505 x 510 km, 82.5° (Epoch: 28 May)

Date Brightness Start Highest point End Pass type
(mag) Time Alt. Az. Time Alt. Az. Time Alt. Az.
29 May 4.5 00:06:23 10° NW 00:08:56 18° W 00:08:56 18° W visible
29 May 4.2 22:12:56 10° NNE 22:16:09 25° ENE 22:16:37 25° E visible
29 May 4.2 23:48:33 10° NW 23:51:27 23° W 23:51:27 23° W visible
30 May 4.6 21:55:38 10° NNE 21:58:32 20° ENE 21:59:08 20° E visible
30 May 3.9 23:30:48 10° NNW 23:33:58 29° W 23:33:58 29° W visible
31 May 4.8 21:38:27 10° NNE 21:40:54 16° ENE 21:41:40 15° E visible
31 May 3.5 23:13:05 10° NNW 23:16:30 38° W 23:16:30 38° W visible
01 Jun 5.1 21:21:25 10° NE 21:23:15 13° ENE 21:24:11 12° E visible
01 Jun 3.1 22:55:26 10° NNW 22:59:01 50° W 22:59:01 50° W visible
02 Jun 5.3 21:05:00 10° ENE 21:05:34 10° ENE 21:06:09 10° ENE visible
02 Jun 2.7 22:37:49 10° NNW 22:41:33 67° W 22:41:33 67° W visible
03 Jun 2.5 22:20:14 10° N 22:24:02 88° W 22:24:06 87° SSW visible
04 Jun 2.6 22:02:40 10° N 22:06:28 70° E 22:06:38 69° ESE visible
05 Jun 3.0 21:45:09 10° N 21:48:53 53° ENE 21:49:11 51° E visible
05 Jun 5.1 23:22:32 10° WNW 23:23:56 12° W 23:24:01 12° W visible
06 Jun 3.4 21:27:40 10° N 21:31:16 40° ENE 21:31:44 38° E visible
06 Jun 4.9 23:04:15 10° NW 23:06:27 15° W 23:06:35 15° W visible
07 Jun 3.8 21:10:13 10° N 21:13:38 31° ENE 21:14:18 29° E visible
07 Jun 4.6 22:46:14 10° NW 22:48:58 19° W 22:49:08 19° W visible
